W1HS Weather Reports


Display with metric or nautical units.
time (UTC)temp
F
wind
direction
speed
MPH
gust
MPH
rain 1hr
in
rain 24hr
in
rain mn
in
humidity
%
barometer
mb
20260504223723 68 248 7.0 10.0 0.00 0.00 0.00 37 986.8
20260504222720 67 248 8.0 10.0 0.00 0.00 0.00 37 986.8
20260504221719 67 225 9.0 14.0 0.00 0.00 0.00 36 986.7
20260504220848 68 293 10.0 13.0 0.00 0.00 0.00 35 986.6
20260504220525 68 270 9.0 11.0 0.00 0.00 0.00 36 986.6
20260504215626 69 270 14.0 17.0 0.00 0.00 0.00 35 986.6
20260504215127 69 248 8.0 10.0 0.00 0.00 0.00 36 986.6
20260504214118 68 248 3.0 5.0 0.00 0.00 0.00 38 986.8
20260504213119 68 248 10.0 16.0 0.00 0.00 0.00 37 986.8
20260504212118 68 270 13.0 17.0 0.00 0.00 0.00 36 986.8
20260504211118 67 270 7.0 9.0 0.00 0.00 0.00 39 986.9
20260504210118 67 248 9.0 13.0 0.00 0.00 0.00 37 986.9
20260504205118 68 270 10.0 15.0 0.00 0.00 0.00 37 986.9
20260504204118 67 270 15.0 21.0 0.00 0.00 0.00 38 987.1
20260504203135 67 270 13.0 17.0 0.00 0.00 0.00 38 986.9
20260504202118 67 270 7.0 14.0 0.00 0.00 0.00 37 987.0
20260504201118 67 248 14.0 26.0 0.00 0.00 0.00 38 987.0
20260504200122 67 270 9.0 13.0 0.00 0.00 0.00 37 987.0
20260504195120 68 270 14.0 21.0 0.00 0.00 0.00 37 987.3
20260504194118 67 248 10.0 16.0 0.00 0.00 0.00 39 987.4
20260504193119 67 248 13.0 21.0 0.00 0.00 0.00 38 987.3
20260504192129 66 293 16.0 22.0 0.00 0.00 0.00 39 987.2
20260504191120 67 270 15.0 21.0 0.00 0.00 0.00 38 987.3
20260504190120 68 270 12.0 22.0 0.00 0.00 0.00 38 987.4
20260504185120 67 248 14.0 19.0 0.00 0.00 0.00 38 987.3
20260504184120 66 270 9.0 12.0 0.00 0.00 0.00 39 987.3
20260504183120 66 270 14.0 18.0 0.00 0.00 0.00 38 987.4
20260504182119 66 270 19.0 24.0 0.00 0.00 0.00 38 987.3
20260504181120 65 248 16.0 23.0 0.00 0.00 0.00 40 987.5
20260504180120 64 248 10.0 16.0 0.00 0.00 0.00 40 987.5
20260504175123 63 248 16.0 22.0 0.00 0.00 0.00 42 987.7
20260504174119 64 248 11.0 16.0 0.00 0.00 0.00 41 987.6
20260504173119 65 248 18.0 25.0 0.00 0.00 0.00 39 987.7
20260504172120 65 270 14.0 21.0 0.00 0.00 0.00 42 987.5
20260504171119 64 248 16.0 21.0 0.00 0.00 0.00 41 987.5
20260504170118 64 248 13.0 17.0 0.00 0.00 0.00 42 987.5
20260504160123 60 248 13.0 29.0 0.00 0.00 0.00 46 988.2
20260504151129 58 248 13.0 19.0 0.00 0.00 0.00 45 988.6
20260504150121 59 248 7.0 13.0 0.00 0.00 0.00 45 988.6
20260504141119 57 248 9.0 13.0 0.00 0.00 0.00 48 988.5
20260504140129 57 248 6.0 10.0 0.00 0.00 0.00 49 988.3
20260504130119 53 225 10.0 14.0 0.00 0.00 0.00 55 988.8
20260504120120 48 225 3.0 8.0 0.00 0.00 0.00 62 989.3
20260504110119 46 225 4.0 9.0 0.00 0.00 0.00 66 989.4
20260504100119 47 225 4.0 6.0 0.00 0.00 0.00 67 989.2
20260504090119 46 225 4.0 6.0 0.00 0.00 0.00 74 989.3
20260504081528 45 248 3.0 8.0 0.00 0.00 0.00 74 989.3
20260504080522 45 270 6.0 8.0 0.00 0.00 0.00 74 989.4
20260504050519 44 248 2.0 4.0 0.00 0.00 0.00 49 989.7
20260504045518 45 248 2.0 5.0 0.00 0.00 0.00 46 989.6
20260504044519 45 270 1.0 2.0 0.00 0.00 0.00 45 989.6
20260504043518 44 0.0 2.0 0.00 0.00 0.00 45 989.6
20260504042519 44 0.0 0.0 0.00 0.00 0.00 45 989.6
20260504041519 44 270 1.0 3.0 0.00 0.00 0.00 47 989.7
20260504040518 44 270 3.0 4.0 0.00 0.00 0.00 47 989.6
20260504035518 43 270 1.0 2.0 0.00 0.00 0.00 49 989.4
20260504034519 43 270 1.0 4.0 0.00 0.00 0.00 49 989.4
20260504033519 43 270 1.0 2.0 0.00 0.00 0.00 49 989.4
20260504032518 43 293 3.0 4.0 0.00 0.00 0.00 50 989.4
20260504031523 43 293 3.0 4.0 0.00 0.00 0.00 51 989.4
20260504030518 43 293 1.0 2.0 0.00 0.00 0.00 52 989.4
20260504025520 43 293 1.0 2.0 0.00 0.00 0.00 52 989.5
20260504024519 43 315 3.0 4.0 0.00 0.00 0.00 52 989.5
20260504023518 43 315 2.0 3.0 0.00 0.00 0.00 51 989.5
20260504022518 43 315 2.0 4.0 0.00 0.00 0.00 51 989.5
20260504021518 43 0.0 1.0 0.00 0.00 0.00 52 989.5
20260504020518 44 315 2.0 3.0 0.00 0.00 0.00 50 989.5
20260504015519 44 315 2.0 3.0 0.00 0.00 0.00 48 989.3
20260504014520 44 0.0 1.0 0.00 0.00 0.00 48 989.2
20260504013521 44 315 1.0 3.0 0.00 0.00 0.00 49 989.2
20260504012519 44 0.0 0.0 0.00 0.00 0.00 48 989.0
20260504011519 44 0.0 1.0 0.00 0.00 0.00 49 988.9
20260504010518 44 0.0 1.0 0.00 0.00 0.00 49 988.7
20260504005519 44 0.0 0.0 0.00 0.00 0.00 49 988.6
20260504004527 44 0.0 0.0 0.00 0.00 0.00 49 988.5
20260504003519 44 0.0 0.0 0.00 0.00 0.00 48 988.5
20260504002518 45 0.0 0.0 0.00 0.00 0.00 48 988.4
20260504001518 45 0.0 1.0 0.00 0.00 0.00 48 988.3
20260504000522 46 0.0 3.0 0.00 0.00 0.00 47 988.2
20260503235518 46 315 1.0 3.0 0.00 0.00 0.00 46 988.1
20260503234518 47 0.0 0.0 0.00 0.00 0.00 46 988.0
20260503233518 47 338 1.0 3.0 0.00 0.00 0.00 45 987.9
20260503232519 48 293 1.0 3.0 0.00 0.00 0.00 45 988.0
20260503231518 48 0.0 0.0 0.00 0.00 0.00 46 988.0
20260503230522 48 315 3.0 7.0 0.00 0.00 0.00 44 988.0
20260503225527 48 338 5.0 11.0 0.00 0.00 0.00 45 987.8
20260503224520 48 315 6.0 12.0 0.00 0.00 0.00 43 987.9